AirNav   Air Wisconsin pilot careers
 
 729 users online  

N18 Tinak Airport
Arno Atoll, Marshall Islands


FAA INFORMATION EFFECTIVE 13 SEPTEMBER 2018

Location

FAA Identifier: N18
Lat/Long: 07-08-00.0000N / 171-55-00.0000E
07-08.000000N / 171-55.000000E
7.1333333 / 171.9166667
(estimated)
Elevation: 4 ft. / 1 m (estimated)
Variation: 10E (1985)
Time zone: UTC +12 (year round; does not observe DST)

Airport Operations

Airport use: Open to the public
Activation date: 06/1983
Control tower: no
ARTCC: HONOLULU CONTROL FACILITY CENTER
FSS: HONOLULU FLIGHT SERVICE STATION
NOTAMs facility: HNL (NOTAM-D service available)
Attendance: ON CALL
Segmented circle: no

Airport Communications

CTAF: 122.9

Nearby radio navigation aids

NDB name  Hdg/Dist  Freq  Var  ID
MAJURO074/38.831610EMAJ -- .- .---

Airport Services

Runway Information

Runway 5/23

Dimensions: 2850 x 45 ft. / 869 x 14 m
Surface: gravel
CORAL.
RUNWAY 5  RUNWAY 23
Traffic pattern: leftleft

Airport Ownership and Management from official FAA records

Ownership: Publicly-owned
Owner: TRUST TERR OF PACIFIC IS
TRUST TERR OF PACIFIC IS
SAIPAN MARIANA IS 96950
Phone SAIPAN 9731
Manager: YWAO ELANZO
DEPT OF TRANS MARSHALLS DIST
TRUST TERR OF PACIFIC IS

Instrument Procedures

There are no published instrument procedures at N18.

Some nearby airports with instrument procedures:

PKMJ - Marshall Islands International Airport (39 nm W)
 
Loc | Ops | Rwys | IFR | FBO | Links
Com | Nav | Svcs | Stats | Notes


 
Aerial photo
No photo
 
Airport distance calculator
Flying to Tinak Airport? Find the distance to fly.

From to N18

Sunrise and sunset
Times for 25-Sep-2018
 Local
(UTC+12)
 Zulu
(UTC)
Morning civil twilight06:0118:01
Sunrise06:2218:22
Sunset18:2606:26
Evening civil twilight18:4706:47

Current date and time
Zulu (UTC)  25-Sep-2018 11:38:14
Local (UTC+12)  25-Sep-2018 23:38:14
 
METAR
PKMJ 
39nm W 
242328Z 16009KT 15SM FEW015 SCT050 BKN120 BKN300 30/25 A2980 RMK LAST
PKMR 
43nm W 
251053Z VRB04KT 15SM FEW015 SCT050 BKN120 OVC300 29/24 A2979 RMK SLP090 T02870238
TAF
PKMJ 
39nm W 
250530Z 2506/2606 17007KT P6SM VCSH SCT014 SCT050
NOTAMs
Click for the latest NOTAMs
NOTAMs are issued by the DoD/FAA and will open in a separate window not controlled by AirNav.

 

 
 

Would you like to see your business listed on this page?

 If your business provides an interesting product or service to pilots, flight crews, aircraft, or users of the Tinak Airport, you should consider listing it here.  To start the listing process, click on the button below
 
Add a business
 

Other Pages about Tinak Airport

Update a link
 
Copyright © AirNav, LLC. All rights reserved. Privacy Policy  Contact